Weather Roundup
Issued by NWS Springfield, MO

Home | Current Version | Previous Version | Text Only | Print | Product List | Glossary On
Versions: 1 2 3 4 5 6 7 8 9 10 11 12 13 14 15 16 17 18 19 20 21 22 23 24 25 26 27 28 29 30 31 32 33 34 35 36 37 38 39 40 41 42 43 44 45 46 47 48 49 50
000
NZUS99 KSGF 300057
HRRSGF

HOURLY WEATHER
NATIONAL WEATHER SERVICE SPRINGFIELD MO
800 PM CDT SAT APR 29 2017

......SGF CWA......

CITY           SKY/WX    TMP DP  RH WIND       PRES   REMARKS
SPRINGFIELD    TSTM      63  62  97 SE21G26   29.71F
JOPLIN         TSTM      58  58 100 E14G29    29.62F
ROLLA          HVY RAIN  54  32  43 E12       29.84F
BRANSON        CLOUDY    63  63 100 S3        29.74R THUNDER FOG

......SURROUNDING SGF CWA......

CITY           SKY/WX    TMP DP  RH WIND       PRES   REMARKS
CHANUTE        TSTM      55  53  93 N13       29.71F FOG
PARSONS        TSTM      56  54  93 N14G29    29.65F FOG
COFFEYVILLE    TSTM      58  56  93 NW16G51   29.65R VSB 1
EMPORIA        CLOUDY    46  46 100 N16G28    29.77R FOG
HARRISON AR    CLOUDY    63  63 100 N9        29.72S

......KANSAS AND MISSOURI......

CITY           SKY/WX    TMP DP  RH WIND       PRES   REMARKS
KANSAS CTY INT LGT RAIN  44  42  93 NE21      29.81F
SEDALIA        LGT RAIN  50  50 100 E9        29.81R
ST JOSEPH      LGT RAIN  45  44  97 NE17G23   29.85S FOG
ST LOUIS       TSTM      53  51  93 N10       29.88S FOG
WICHITA        LGT RAIN  47  46  97 NE20G31   29.73R FOG
TOPEKA         CLOUDY    46  45  96 NE10G23   29.86R
OLATHE         LGT RAIN  45  45 100 E9        29.82R

......TENNESSEE......

CITY           SKY/WX    TMP DP  RH WIND       PRES   REMARKS
MEMPHIS        NOT AVBL
NASHVILLE      PTCLDY    80  65  59 S12       29.95R

......ARKANSAS.......

CITY           SKY/WX    TMP DP  RH WIND       PRES   REMARKS
FAYETTEVILLE   TSTM      64  64 100 VRB6      29.67R
FT SMITH       CLOUDY    75  65  70 SE16      29.59R THUNDER
LITTLE ROCK    CLOUDY    72  72 100 SE8       29.67F

......OKLAHOMA.......

CITY           SKY/WX    TMP DP  RH WIND       PRES   REMARKS
TULSA          TSTM      56  56 100 NE10      29.58R FOG
PONCA CITY     CLOUDY    51  48  89 N17       29.64R
MCALESTER      CLOUDY    60  59  96 W6        29.57R
OKLAHOMA CITY  DRZL/FOG  51  49  92 NW17      29.66R VSB 3/4

......IOWA............

CITY           SKY/WX    TMP DP  RH WIND       PRES   REMARKS
DES MOINES     NOT AVBL
QUAD CITIES    CLOUDY    41  37  86 NE15      29.93R

......ILLINOIS........

CITY           SKY/WX    TMP DP  RH WIND       PRES   REMARKS
QUINCY         NOT AVBL
CHICAGO        LGT RAIN  41  39  93 NE18G28   30.07F FOG



USA.gov is the U.S. government's official web portal to all federal, state and local government web resources and services.